TIANWANG 1B (TW-1B)
1 40927U 15051C   19195.42965888  .00010121  00000-0  15496-3 0  9992
2 40927  97.1372 240.8926 0006158 291.6795 182.9408 15.54529281214015
TIANWANG 1A (TW-1A)
1 40928U 15051D   19195.39971161  .00003202  00000-0  79828-4 0  9992
2 40928  97.1443 226.1348 0010814 349.9993  66.7587 15.40887160213138
LAPAN A2
1 40931U 15052B   19194.61018705  .00000705  00000-0  92670-5 0  9993
2 40931   6.0015 238.9069 0012383 149.3245 210.7728 14.76610721204955
LQSAT
1 40958U 15057A   19195.17194657 -.00000032  00000-0  26619-5 0  9994
2 40958  97.8975 263.6794 0018784 155.6699 204.5400 14.73083608202558
CHUBUSAT 2
1 41338U 16012B   19194.84293734  .00000242  00000-0  12114-4 0  9994
2 41338  31.0041 344.9314 0013871 351.6210   8.4192 15.00158034186697
CHUBUSAT 3
1 41339U 16012C   19195.54131985  .00000252  00000-0  12852-4 0  9992
2 41339  31.0123 338.5538 0013807   6.4542 353.6287 15.00333758186797
OUFTI-1
1 41458U 16025C   19195.23814140  .00000533  00000-0  31807-4 0  9998
2 41458  98.1023 283.3806 0164867 271.1992  87.0351 15.05843439176415
E-STAR-2
1 41459U 16025D   19195.46005822  .00001148  00000-0  63155-4 0  9997
2 41459  98.1017 283.2587 0166718 271.7295  86.4868 15.05480972176429
AAUSAT 4
1 41460U 16025E   19195.47005026  .00000667  00000-0  37984-4 0  9992
2 41460  98.0953 284.5752 0156259 264.1701  94.1688 15.07367065176553
NUSAT 1
1 41557U 16033B   19195.46606247  .00000936  00000-0  37781-4 0  9993
2 41557  97.4183 282.8167 0013215 200.1996 159.8722 15.27247059174029
BEESAT 4
1 41619U 16040W   19195.13644463  .00000929  00000-0  42231-4 0  9994
2 41619  97.3660 256.8850 0009727 298.4017  61.6239 15.23164882157734
PRATHAM
1 41783U 16059A   19194.76821116  .00000018  00000-0  12902-4 0  9997
2 41783  98.0659 253.7946 0032377 306.5984  53.2241 14.62998960149213
ALSAT 1N
1 41789U 16059G   19195.41885401  .00000020  00000-0  12853-4 0  9991
2 41789  98.0680 256.4798 0027226 293.7440  66.0909 14.64248930149411
NAYIF 1
1 42017U 17008BX  19195.14744284  .00001067  00000-0  44852-4 0  9990
2 42017  97.4019 261.9785 0007950  82.7166 277.4976 15.25570347133801
MAX VALIER SAT
1 42778U 17036P   19195.16888187  .00000687  00000-0  32993-4 0  9998
2 42778  97.3528 252.2726 0013795 130.1897 230.0549 15.22041966114111
